FW2516 Weather Reports


time (UTC)temp
F
wind
direction
speed
knots
gust
knots
rain 1hr
in
rain 24hr
in
rain mn
in
humidity
%
barometer
mb
20260505034520 55 185 0.0 0.0 0.00 0.00 0.00 58 1014.9
20260505031523 58 184 0.0 0.0 0.00 0.00 0.00 52 1015.0
20260505030010 59 186 0.0 0.0 0.00 0.00 0.00 51 1014.9
20260505024509 60 186 0.0 0.0 0.00 0.00 0.00 48 1014.8
20260505021510 64 186 0.0 0.0 0.00 0.00 0.00 40 1014.8
20260505020009 65 180 0.0 0.0 0.00 0.00 0.00 37 1014.6
20260505014509 66 180 0.0 0.9 0.00 0.00 0.00 35 1014.6
20260505011516 67 178 0.9 2.6 0.00 0.00 0.00 32 1014.3
20260505010022 67 179 0.0 1.7 0.00 0.00 0.00 34 1014.2
20260505004509 69 178 0.0 1.7 0.00 0.00 0.00 29 1014.1
20260505001506 71 208 0.0 0.0 0.00 0.00 0.00 27 1013.9
20260505000007 72 198 0.0 0.0 0.00 0.00 0.00 26 1013.7
20260504234508 73 198 0.9 4.3 0.00 0.00 0.00 25 1013.9
20260504231506 75 192 0.0 2.6 0.00 0.00 0.00 24 1013.5
20260504230007 76 196 0.0 1.7 0.00 0.00 0.00 22 1013.5
20260504224506 77 203 0.0 2.6 0.00 0.00 0.00 23 1013.5
20260504221503 78 205 0.0 5.2 0.00 0.00 0.00 21 1013.4
20260504220008 79 176 0.9 5.2 0.00 0.00 0.00 20 1013.5
20260504214504 80 176 0.0 3.5 0.00 0.00 0.00 21 1013.5
20260504211506 81 119 0.0 3.5 0.00 0.00 0.00 17 1013.5
20260504210002 81 208 3.5 8.7 0.00 0.00 0.00 17 1013.5
20260504204503 82 176 2.6 8.7 0.00 0.00 0.00 19 1013.7
20260504203202 82 131 0.9 6.1 0.00 0.00 0.00 16 1014.0
20260504201600 81 195 1.7 8.7 0.00 0.00 0.00 17 1014.1
20260504194552 82 150 1.7 7.8 0.00 0.00 0.00 17 1014.3
20260504193151 82 288 2.6 9.6 0.00 0.00 0.00 17 1014.6
20260504191555 81 94 0.9 7.0 0.00 0.00 0.00 16 1014.7
20260504190047 80 71 0.9 7.0 0.00 0.00 0.00 16 1014.8
20260504184541 80 240 1.7 6.1 0.00 0.00 0.00 18 1015.1
20260504183140 78 82 5.2 8.7 0.00 0.00 0.00 19 1015.2
20260504181545 77 89 1.7 10.4 0.00 0.00 0.00 16 1015.4
20260504180037 79 205 2.6 8.7 0.00 0.00 0.00 17 1015.4
20260504174535 78 128 0.0 6.1 0.00 0.00 0.00 20 1015.4
20260504173135 77 96 3.5 7.0 0.00 0.00 0.00 20 1015.5
20260504171532 78 125 3.5 7.8 0.00 0.00 0.00 20 1015.7
20260504081530 40 166 0.0 0.0 0.00 0.00 0.00 29 1016.8
20260504050007 45 182 0.0 0.9 0.00 0.00 0.00 60 1017.3
20260504044513 45 184 0.0 0.9 0.00 0.00 0.00 60 1016.9
20260504043008 46 184 0.0 0.0 0.00 0.00 0.00 60 1016.9
20260504041501 46 185 0.0 0.0 0.00 0.00 0.00 61 1017.1
20260504040107 47 186 0.0 0.0 0.00 0.00 0.00 61 1017.1